Location: Unspecified
(0.0000°N, 0.0000°E)
Time: 19:18:12
(UTC+00:00)

ARIANE 2 DEB - Pass Details

Date: 14 March 2026
Orbit: 794 x 35760 km, 8.3° (Epoch: 17 April)

Event Time Altitude Azimuth Distance (km) Brightness Sun altitude
Rises 10:04:40 0° 259° (W) 6,529 ? 58.8°
Reaches altitude 10° 10:07:12 10° 257° (WSW) 6,258 ? 59.4°
Maximum altitude 14:44:55 89° 10° (N) 35,580 ? 51.0°
Enters shadow 20:08:33 36° 72° (ENE) 5,684 ? -29.8°
